| time (UTC) | temp F | wind direction | speed MPH | gust MPH | rain 1hr in | rain 24hr in | rain mn in | humidity % | barometer mb |
| 20260508222249 | 53 | 57 | 0.0 | 1.0 | 0.00 | 0.00 | 0.00 | 61 | 4091.8 |
| 20260508221746 | 53 | 29 | 1.0 | 2.0 | 0.00 | 0.00 | 0.00 | 60 | 4092.1 |
| 20260508221242 | 54 | 111 | 1.0 | 2.0 | 0.00 | 0.00 | 0.00 | 60 | 4092.1 |
| 20260508220738 | 53 | 66 | 0.0 | 1.0 | 0.00 | 0.00 | 0.00 | 60 | 4092.1 |
| 20260508220234 | 53 | 339 | 1.0 | 1.0 | 0.00 | 0.00 | 0.00 | 59 | 4092.5 |
| 20260508215731 | 53 | 347 | 2.0 | 2.0 | 0.00 | 0.00 | 0.00 | 58 | 4092.5 |
| 20260508215227 | 54 | 325 | 1.0 | 2.0 | 0.00 | 0.00 | 0.00 | 59 | 4092.1 |
| 20260508214725 | 55 | 161 | 0.0 | 1.0 | 0.00 | 0.00 | 0.00 | 60 | 4092.5 |
| 20260508214222 | 54 | 208 | 0.0 | 1.0 | 0.00 | 0.00 | 0.00 | 60 | 4092.5 |
| 20260508213718 | 54 | 12 | 0.0 | 0.0 | 0.00 | 0.00 | 0.00 | 61 | 4092.5 |
| 20260508213215 | 53 | 301 | 0.0 | 1.0 | 0.00 | 0.00 | 0.00 | 63 | 4092.5 |
| 20260508212712 | 52 | 170 | 1.0 | 2.0 | 0.00 | 0.00 | 0.00 | 64 | 4092.1 |
| 20260508212208 | 53 | 318 | 1.0 | 1.0 | 0.00 | 0.00 | 0.00 | 66 | 4092.5 |
| 20260508211703 | 52 | 62 | 0.0 | 0.0 | 0.00 | 0.00 | 0.00 | 67 | 4092.5 |
| 20260508211159 | 52 | 293 | 1.0 | 1.0 | 0.00 | 0.00 | 0.00 | 68 | 4092.5 |
| 20260508210657 | 52 | 75 | 1.0 | 1.0 | 0.00 | 0.00 | 0.00 | 70 | 4092.5 |
| 20260508210154 | 51 | 55 | 1.0 | 2.0 | 0.00 | 0.00 | 0.00 | 72 | 4092.5 |
| 20260508205651 | 52 | 334 | 1.0 | 1.0 | 0.00 | 0.00 | 0.00 | 75 | 4092.8 |
| 20260508205147 | 51 | 140 | 1.0 | 1.0 | 0.00 | 0.00 | 0.00 | 77 | 4092.8 |
| 20260508204643 | 51 | 323 | 1.0 | 1.0 | 0.00 | 0.00 | 0.00 | 78 | 4092.5 |
| 20260508204140 | 51 | 75 | 1.0 | 2.0 | 0.00 | 0.00 | 0.00 | 79 | 4092.8 |
| 20260508203636 | 50 | 90 | 1.0 | 1.0 | 0.00 | 0.00 | 0.00 | 79 | 4092.5 |
| 20260508203132 | 50 | 123 | 1.0 | 1.0 | 0.00 | 0.00 | 0.00 | 80 | 4092.5 |
| 20260508202629 | 49 | 293 | 1.0 | 1.0 | 0.00 | 0.00 | 0.00 | 83 | 4092.8 |
| 20260508202126 | 50 | 343 | 2.0 | 5.0 | 0.00 | 0.00 | 0.00 | 81 | 4092.8 |
| 20260508201623 | 51 | 52 | 0.0 | 1.0 | 0.00 | 0.00 | 0.00 | 79 | 4092.8 |
| 20260508201119 | 50 | 234 | 1.0 | 1.0 | 0.00 | 0.00 | 0.00 | 81 | 4092.8 |
| 20260508200616 | 51 | 90 | 1.0 | 1.0 | 0.00 | 0.00 | 0.00 | 75 | 4093.2 |
| 20260508200112 | 50 | 236 | 1.0 | 2.0 | 0.00 | 0.00 | 0.00 | 79 | 4093.2 |
| 20260508195609 | 51 | 50 | 3.0 | 3.0 | 0.00 | 0.00 | 0.00 | 77 | 4093.2 |
| 20260508195105 | 51 | 255 | 1.0 | 2.0 | 0.00 | 0.00 | 0.00 | 80 | 4093.2 |
| 20260508194602 | 51 | 224 | 1.0 | 1.0 | 0.00 | 0.00 | 0.00 | 80 | 4093.5 |
| 20260508194059 | 50 | 216 | 1.0 | 2.0 | 0.00 | 0.00 | 0.00 | 81 | 4093.5 |
| 20260508193555 | 50 | 63 | 3.0 | 3.0 | 0.00 | 0.00 | 0.00 | 80 | 4093.5 |
| 20260508193053 | 50 | 221 | 3.0 | 3.0 | 0.00 | 0.00 | 0.00 | 80 | 4093.5 |
| 20260508192549 | 51 | 82 | 1.0 | 1.0 | 0.00 | 0.00 | 0.00 | 77 | 4093.5 |
| 20260508192046 | 52 | 198 | 2.0 | 2.0 | 0.00 | 0.00 | 0.00 | 76 | 4093.5 |
| 20260508191543 | 52 | 233 | 0.0 | 1.0 | 0.00 | 0.00 | 0.00 | 77 | 4093.8 |
| 20260508191040 | 51 | 191 | 2.0 | 3.0 | 0.00 | 0.00 | 0.00 | 78 | 4093.8 |
| 20260508190537 | 51 | 282 | 1.0 | 2.0 | 0.00 | 0.00 | 0.00 | 79 | 4093.8 |
| 20260508190033 | 51 | 203 | 2.0 | 3.0 | 0.00 | 0.00 | 0.00 | 77 | 4093.8 |
| 20260508185531 | 51 | 162 | 0.0 | 1.0 | 0.00 | 0.00 | 0.00 | 76 | 4093.8 |
| 20260508185028 | 51 | 217 | 0.0 | 0.0 | 0.00 | 0.00 | 0.00 | 76 | 4093.8 |
| 20260508184525 | 51 | 163 | 1.0 | 1.0 | 0.00 | 0.00 | 0.00 | 78 | 4093.8 |
| 20260508184022 | 51 | 223 | 3.0 | 3.0 | 0.00 | 0.00 | 0.00 | 77 | 4093.8 |
| 20260508183519 | 51 | 204 | 2.0 | 2.0 | 0.00 | 0.00 | 0.00 | 77 | 4093.8 |
| 20260508183015 | 51 | 36 | 2.0 | 2.0 | 0.00 | 0.00 | 0.00 | 76 | 4093.8 |
| 20260508182511 | 50 | 157 | 2.0 | 2.0 | 0.00 | 0.00 | 0.00 | 78 | 4093.8 |
| 20260508182008 | 50 | 225 | 3.0 | 3.0 | 0.00 | 0.00 | 0.00 | 80 | 4093.8 |
| 20260508181503 | 50 | 230 | 3.0 | 3.0 | 0.00 | 0.00 | 0.00 | 82 | 4093.8 |
| 20260508181001 | 49 | 159 | 1.0 | 3.0 | 0.00 | 0.00 | 0.00 | 80 | 4093.8 |
| 20260508180457 | 49 | 219 | 1.0 | 2.0 | 0.00 | 0.00 | 0.00 | 82 | 4093.8 |
| 20260508175953 | 49 | 135 | 2.0 | 3.0 | 0.00 | 0.00 | 0.00 | 82 | 4094.2 |
| 20260508175450 | 49 | 59 | 0.0 | 0.0 | 0.00 | 0.00 | 0.00 | 82 | 4094.2 |
| 20260508174948 | 50 | 50 | 0.0 | 0.0 | 0.00 | 0.00 | 0.00 | 82 | 4094.2 |
| 20260508174445 | 50 | 240 | 2.0 | 3.0 | 0.00 | 0.00 | 0.00 | 86 | 4094.2 |
| 20260508173942 | 50 | 138 | 1.0 | 1.0 | 0.00 | 0.00 | 0.00 | 84 | 4094.2 |
| 20260508173439 | 49 | 231 | 3.0 | 5.0 | 0.00 | 0.00 | 0.00 | 83 | 4094.2 |
| 20260508172935 | 50 | 226 | 2.0 | 2.0 | 0.00 | 0.00 | 0.00 | 82 | 4094.5 |
| 20260508172433 | 49 | 134 | 1.0 | 1.0 | 0.00 | 0.00 | 0.00 | 83 | 4094.5 |
| 20260508171929 | 48 | 84 | 0.0 | 0.0 | 0.00 | 0.00 | 0.00 | 82 | 4094.5 |
| 20260508171425 | 48 | 165 | 1.0 | 1.0 | 0.00 | 0.00 | 0.00 | 85 | 4094.5 |
| 20260508170922 | 48 | 143 | 0.0 | 1.0 | 0.00 | 0.00 | 0.00 | 83 | 4094.2 |
| 20260508170419 | 49 | 189 | 1.0 | 3.0 | 0.00 | 0.00 | 0.00 | 81 | 4094.2 |
| 20260508165915 | 49 | 113 | 0.0 | 1.0 | 0.00 | 0.00 | 0.00 | 82 | 4094.5 |
| 20260508165414 | 48 | 78 | 1.0 | 2.0 | 0.00 | 0.00 | 0.00 | 82 | 4094.5 |
| 20260508164909 | 48 | 225 | 2.0 | 2.0 | 0.00 | 0.00 | 0.00 | 83 | 4094.5 |
| 20260508164407 | 47 | 16 | 1.0 | 2.0 | 0.00 | 0.00 | 0.00 | 83 | 4094.9 |
| 20260508163904 | 46 | 49 | 1.0 | 1.0 | 0.00 | 0.00 | 0.00 | 85 | 4094.9 |
| 20260508163402 | 46 | 327 | 3.0 | 3.0 | 0.00 | 0.00 | 0.00 | 84 | 4094.9 |
| 20260508162857 | 46 | 29 | 2.0 | 3.0 | 0.00 | 0.00 | 0.00 | 84 | 4094.9 |
| 20260508162354 | 47 | 60 | 2.0 | 2.0 | 0.00 | 0.00 | 0.00 | 83 | 4094.9 |
| 20260508161851 | 46 | 58 | 2.0 | 2.0 | 0.00 | 0.00 | 0.00 | 83 | 4094.9 |
| 20260508161349 | 46 | 70 | 1.0 | 1.0 | 0.00 | 0.00 | 0.00 | 85 | 4094.9 |
| 20260508160846 | 46 | 45 | 2.0 | 3.0 | 0.00 | 0.00 | 0.00 | 85 | 4094.9 |
| 20260508160344 | 45 | 350 | 3.0 | 5.0 | 0.00 | 0.00 | 0.00 | 85 | 4094.9 |
| 20260508155840 | 45 | 359 | 2.0 | 2.0 | 0.00 | 0.00 | 0.00 | 85 | 4094.9 |
| 20260508155338 | 46 | 350 | 3.0 | 5.0 | 0.00 | 0.00 | 0.00 | 84 | 4095.2 |
| 20260508154834 | 45 | 349 | 5.0 | 6.0 | 0.00 | 0.00 | 0.00 | 84 | 4095.2 |
| 20260508154332 | 45 | 351 | 3.0 | 3.0 | 0.00 | 0.00 | 0.00 | 85 | 4095.2 |
| 20260508153828 | 46 | 25 | 2.0 | 2.0 | 0.00 | 0.00 | 0.00 | 85 | 4095.5 |
| 20260508153326 | 45 | 85 | 1.0 | 1.0 | 0.00 | 0.00 | 0.00 | 86 | 4095.2 |
| 20260508152821 | 45 | 356 | 3.0 | 5.0 | 0.00 | 0.00 | 0.00 | 84 | 4095.2 |
| 20260508152318 | 46 | 357 | 3.0 | 5.0 | 0.00 | 0.00 | 0.00 | 84 | 4095.2 |
| 20260508151815 | 46 | 90 | 0.0 | 1.0 | 0.00 | 0.00 | 0.00 | 84 | 4095.5 |
| 20260508151312 | 46 | 109 | 0.0 | 1.0 | 0.00 | 0.00 | 0.00 | 84 | 4095.5 |
| 20260508150808 | 47 | 200 | 2.0 | 2.0 | 0.00 | 0.00 | 0.00 | 84 | 4095.2 |
| 20260508150305 | 48 | 200 | 2.0 | 3.0 | 0.00 | 0.00 | 0.00 | 82 | 4095.5 |
| 20260508145802 | 48 | 208 | 2.0 | 3.0 | 0.00 | 0.00 | 0.00 | 83 | 4095.5 |
| 20260508145257 | 47 | 179 | 1.0 | 2.0 | 0.00 | 0.00 | 0.00 | 83 | 4095.5 |
| 20260508144754 | 46 | 219 | 2.0 | 2.0 | 0.00 | 0.00 | 0.00 | 85 | 4095.5 |
| 20260508144252 | 47 | 217 | 0.0 | 1.0 | 0.00 | 0.00 | 0.00 | 86 | 4095.5 |
| 20260508143749 | 47 | 202 | 2.0 | 2.0 | 0.00 | 0.00 | 0.00 | 84 | 4095.5 |
| 20260508143246 | 46 | 213 | 0.0 | 0.0 | 0.00 | 0.00 | 0.00 | 83 | 4095.5 |
| 20260508142742 | 44 | 219 | 1.0 | 2.0 | 0.00 | 0.00 | 0.00 | 84 | 4095.5 |
| 20260508142239 | 44 | 217 | 3.0 | 3.0 | 0.00 | 0.00 | 0.00 | 81 | 4095.5 |
| 20260508141736 | 44 | 215 | 2.0 | 2.0 | 0.00 | 0.00 | 0.00 | 82 | 4095.5 |
| 20260508141234 | 44 | 214 | 3.0 | 3.0 | 0.00 | 0.00 | 0.00 | 82 | 4095.9 |
| 20260508140731 | 44 | 193 | 2.0 | 3.0 | 0.00 | 0.00 | 0.00 | 83 | 4095.9 |
| 20260508140227 | 43 | 192 | 1.0 | 1.0 | 0.00 | 0.00 | 0.00 | 86 | 4095.9 |
| 20260508135723 | 43 | 191 | 2.0 | 2.0 | 0.00 | 0.00 | 0.00 | 88 | 4095.9 |
| 20260508135219 | 43 | 191 | 1.0 | 1.0 | 0.00 | 0.00 | 0.00 | 88 | 4095.9 |
| 20260508134710 | 43 | 191 | 1.0 | 1.0 | 0.00 | 0.00 | 0.00 | 88 | 4095.5 |
| 20260508134207 | 43 | 191 | 1.0 | 2.0 | 0.00 | 0.00 | 0.00 | 87 | 4095.9 |
| 20260508133704 | 42 | 191 | 1.0 | 1.0 | 0.00 | 0.00 | 0.00 | 88 | 4095.9 |
| 20260508133201 | 42 | 191 | 2.0 | 2.0 | 0.00 | 0.00 | 0.00 | 88 | 4095.9 |
| 20260508132659 | 42 | 191 | 1.0 | 1.0 | 0.00 | 0.00 | 0.00 | 88 | 4095.9 |
| 20260508132156 | 42 | 191 | 1.0 | 1.0 | 0.00 | 0.00 | 0.00 | 91 | 4095.9 |
| 20260508131651 | 41 | 191 | 0.0 | 0.0 | 0.00 | 0.00 | 0.00 | 93 | 4095.9 |
| 20260508131148 | 41 | 191 | 1.0 | 1.0 | 0.00 | 0.00 | 0.00 | 92 | 4095.9 |
| 20260508130645 | 41 | 191 | 2.0 | 2.0 | 0.00 | 0.00 | 0.00 | 92 | 4095.9 |
| 20260508130142 | 41 | 192 | 0.0 | 1.0 | 0.00 | 0.00 | 0.00 | 92 | 4095.9 |
| 20260508125637 | 40 | 192 | 2.0 | 2.0 | 0.00 | 0.00 | 0.00 | 93 | 4095.9 |
| 20260508125134 | 40 | 193 | 2.0 | 2.0 | 0.00 | 0.00 | 0.00 | 94 | 4095.9 |
| 20260508124632 | 40 | 194 | 1.0 | 2.0 | 0.00 | 0.00 | 0.00 | 94 | 4095.9 |
| 20260508124129 | 40 | 194 | 0.0 | 0.0 | 0.00 | 0.00 | 0.00 | 95 | 4095.9 |
| 20260508123628 | 40 | 194 | 1.0 | 1.0 | 0.00 | 0.00 | 0.00 | 95 | 4096.2 |
| 20260508123125 | 40 | 194 | 1.0 | 1.0 | 0.00 | 0.00 | 0.00 | 95 | 4095.9 |
| 20260508122621 | 40 | 194 | 1.0 | 1.0 | 0.00 | 0.00 | 0.00 | 96 | 4095.9 |
| 20260508122118 | 39 | 194 | 1.0 | 1.0 | 0.00 | 0.00 | 0.00 | 96 | 4095.9 |
| 20260508121617 | 39 | 194 | 1.0 | 1.0 | 0.00 | 0.00 | 0.00 | 95 | 4095.9 |
| 20260508121114 | 39 | 194 | 0.0 | 0.0 | 0.00 | 0.00 | 0.00 | 96 | 4095.9 |
| 20260508120611 | 39 | 194 | 0.0 | 0.0 | 0.00 | 0.00 | 0.00 | 96 | 4095.9 |
| 20260508120110 | 39 | 194 | 1.0 | 1.0 | 0.00 | 0.00 | 0.00 | 96 | 4095.9 |
| 20260508115607 | 38 | 194 | 1.0 | 1.0 | 0.00 | 0.00 | 0.00 | 98 | 4095.9 |
| 20260508115103 | 38 | 194 | 1.0 | 1.0 | 0.00 | 0.00 | 0.00 | 98 | 4095.9 |
| 20260508114601 | 38 | 216 | 0.0 | 1.0 | 0.00 | 0.00 | 0.00 | 99 | 4095.9 |
| 20260508114056 | 37 | 217 | 0.0 | 0.0 | 0.00 | 0.00 | 0.00 | 99 | 4095.9 |
| 20260508113554 | 37 | 217 | 0.0 | 0.0 | 0.00 | 0.00 | 0.00 | 99 | 4096.2 |
| 20260508113052 | 36 | 217 | 0.0 | 0.0 | 0.00 | 0.00 | 0.00 | 99 | 4095.9 |
| 20260508112548 | 35 | 217 | 0.0 | 0.0 | 0.00 | 0.00 | 0.00 | 99 | 4095.9 |
| 20260508112045 | 35 | 217 | 0.0 | 0.0 | 0.00 | 0.00 | 0.00 | 99 | 4095.9 |
| 20260508111542 | 34 | 217 | 0.0 | 0.0 | 0.00 | 0.00 | 0.00 | 99 | 4095.9 |
| 20260508111039 | 34 | 217 | 0.0 | 0.0 | 0.00 | 0.00 | 0.00 | 99 | 4095.9 |
| 20260508110537 | 33 | 217 | 0.0 | 0.0 | 0.00 | 0.00 | 0.00 | 99 | 4095.9 |
| 20260508110032 | 33 | 217 | 0.0 | 0.0 | 0.00 | 0.00 | 0.00 | 99 | 4095.9 |
| 20260508105527 | 33 | 217 | 0.0 | 0.0 | 0.00 | 0.00 | 0.00 | 99 | 4095.9 |
| 20260508105025 | 33 | 217 | 0.0 | 0.0 | 0.00 | 0.00 | 0.00 | 99 | 4095.9 |
| 20260508104523 | 32 | 216 | 1.0 | 1.0 | 0.00 | 0.00 | 0.00 | 99 | 4095.9 |
| 20260508104019 | 32 | 216 | 0.0 | 0.0 | 0.00 | 0.00 | 0.00 | 99 | 4095.9 |
| 20260508103516 | 32 | 217 | 1.0 | 1.0 | 0.00 | 0.00 | 0.00 | 99 | 4095.9 |
| 20260508103013 | 32 | 217 | 1.0 | 1.0 | 0.00 | 0.00 | 0.00 | 99 | 4095.9 |
| 20260508102511 | 32 | 217 | 0.0 | 0.0 | 0.00 | 0.00 | 0.00 | 99 | 4095.9 |
| 20260508102009 | 32 | 217 | 1.0 | 1.0 | 0.00 | 0.00 | 0.00 | 99 | 4095.9 |
| 20260508101506 | 32 | 217 | 1.0 | 1.0 | 0.00 | 0.00 | 0.00 | 99 | 4095.9 |
| 20260508101003 | 32 | 217 | 0.0 | 0.0 | 0.00 | 0.00 | 0.00 | 99 | 4095.9 |
| 20260508100501 | 33 | 217 | 0.0 | 1.0 | 0.00 | 0.00 | 0.00 | 99 | 4095.9 |
| 20260508095957 | 34 | 217 | 0.0 | 0.0 | 0.00 | 0.00 | 0.00 | 98 | 4095.9 |
| 20260508095455 | 34 | 216 | 0.0 | 0.0 | 0.00 | 0.00 | 0.00 | 97 | 4095.9 |
| 20260508094951 | 35 | 217 | 0.0 | 0.0 | 0.00 | 0.00 | 0.00 | 96 | 4095.9 |
| 20260508094448 | 37 | 218 | 1.0 | 1.0 | 0.00 | 0.00 | 0.00 | 93 | 4095.9 |
| 20260508093945 | 38 | 218 | 4.0 | 5.0 | 0.00 | 0.00 | 0.00 | 94 | 4095.9 |
| 20260508093442 | 38 | 235 | 5.0 | 5.0 | 0.00 | 0.00 | 0.00 | 95 | 4095.9 |
| 20260508092940 | 38 | 229 | 5.0 | 6.0 | 0.00 | 0.00 | 0.00 | 94 | 4095.9 |
| 20260508092438 | 38 | 234 | 4.0 | 5.0 | 0.00 | 0.00 | 0.00 | 95 | 4095.9 |
| 20260508091936 | 37 | 233 | 5.0 | 6.0 | 0.00 | 0.00 | 0.00 | 96 | 4095.5 |
| 20260508091432 | 37 | 233 | 3.0 | 3.0 | 0.00 | 0.00 | 0.00 | 96 | 4095.9 |
| 20260508090930 | 38 | 246 | 5.0 | 6.0 | 0.00 | 0.00 | 0.00 | 95 | 4095.9 |
| 20260508090429 | 38 | 228 | 5.0 | 6.0 | 0.00 | 0.00 | 0.00 | 95 | 4095.9 |
| 20260508085923 | 38 | 236 | 8.0 | 8.0 | 0.00 | 0.00 | 0.00 | 95 | 4095.9 |
| 20260508085421 | 38 | 234 | 8.0 | 8.0 | 0.00 | 0.00 | 0.00 | 94 | 4096.2 |
| 20260508084917 | 38 | 233 | 6.0 | 7.0 | 0.00 | 0.00 | 0.00 | 94 | 4095.9 |
| 20260508084414 | 38 | 245 | 7.0 | 8.0 | 0.00 | 0.00 | 0.00 | 94 | 4096.2 |
| 20260508083912 | 38 | 240 | 7.0 | 8.0 | 0.00 | 0.00 | 0.00 | 93 | 4095.9 |
| 20260508083409 | 38 | 238 | 8.0 | 9.0 | 0.00 | 0.00 | 0.00 | 93 | 4095.9 |
| 20260508082908 | 39 | 242 | 8.0 | 9.0 | 0.00 | 0.00 | 0.00 | 91 | 4095.9 |
| 20260508082406 | 39 | 241 | 7.0 | 8.0 | 0.00 | 0.00 | 0.00 | 92 | 4096.2 |
| 20260508081904 | 39 | 228 | 7.0 | 8.0 | 0.00 | 0.00 | 0.00 | 91 | 4095.9 |
| 20260508081401 | 39 | 217 | 6.0 | 7.0 | 0.00 | 0.00 | 0.00 | 91 | 4095.9 |
| 20260508080857 | 39 | 230 | 6.0 | 7.0 | 0.00 | 0.00 | 0.00 | 90 | 4095.9 |
| 20260508080355 | 39 | 213 | 7.0 | 8.0 | 0.00 | 0.00 | 0.00 | 91 | 4095.9 |
| 20260508075851 | 39 | 217 | 6.0 | 7.0 | 0.00 | 0.00 | 0.00 | 90 | 4095.9 |
| 20260508075348 | 39 | 220 | 5.0 | 5.0 | 0.00 | 0.00 | 0.00 | 92 | 4096.2 |
| 20260508074847 | 39 | 220 | 5.0 | 6.0 | 0.00 | 0.00 | 0.00 | 92 | 4096.2 |
| 20260508074343 | 38 | 205 | 5.0 | 5.0 | 0.00 | 0.00 | 0.00 | 93 | 4095.9 |
| 20260508073840 | 38 | 171 | 5.0 | 6.0 | 0.00 | 0.00 | 0.00 | 93 | 4096.2 |
| 20260508073338 | 39 | 188 | 4.0 | 5.0 | 0.00 | 0.00 | 0.00 | 91 | 4095.9 |
| 20260508072835 | 37 | 202 | 6.0 | 7.0 | 0.00 | 0.00 | 0.00 | 91 | 4096.2 |
| 20260508072331 | 33 | 198 | 5.0 | 5.0 | 0.00 | 0.00 | 0.00 | 99 | 4095.9 |
| 20260508071828 | 34 | 176 | 0.0 | 1.0 | 0.00 | 0.00 | 0.00 | 99 | 4095.9 |
| 20260508071327 | 33 | 213 | 1.0 | 1.0 | 0.00 | 0.00 | 0.00 | 99 | 4095.9 |
| 20260508070824 | 33 | 214 | 0.0 | 0.0 | 0.00 | 0.00 | 0.00 | 99 | 4096.2 |
| 20260508070322 | 33 | 214 | 0.0 | 0.0 | 0.00 | 0.00 | 0.00 | 99 | 4096.2 |
| 20260508065819 | 33 | 214 | 0.0 | 0.0 | 0.00 | 0.00 | 0.00 | 99 | 4096.5 |
| 20260508065317 | 33 | 214 | 0.0 | 0.0 | 0.00 | 0.00 | 0.00 | 99 | 4096.5 |
| 20260508064815 | 33 | 214 | 0.0 | 0.0 | 0.00 | 0.00 | 0.00 | 99 | 4096.5 |
| 20260508064312 | 33 | 214 | 0.0 | 0.0 | 0.00 | 0.00 | 0.00 | 99 | 4097.0 |
| 20260508063809 | 33 | 214 | 0.0 | 0.0 | 0.00 | 0.00 | 0.00 | 99 | 4097.0 |
| 20260508063308 | 33 | 214 | 0.0 | 0.0 | 0.00 | 0.00 | 0.00 | 99 | 4097.0 |
| 20260508062804 | 33 | 215 | 0.0 | 0.0 | 0.00 | 0.00 | 0.00 | 99 | 4096.5 |
| 20260508062305 | 34 | 216 | 0.0 | 0.0 | 0.00 | 0.00 | 0.00 | 99 | 4097.0 |
| 20260508061758 | 34 | 210 | 0.0 | 0.0 | 0.00 | 0.00 | 0.00 | 99 | 4097.0 |
| 20260508061256 | 33 | 213 | 0.0 | 0.0 | 0.00 | 0.00 | 0.00 | 99 | 4097.3 |
| 20260508060752 | 33 | 212 | 0.0 | 0.0 | 0.00 | 0.00 | 0.00 | 99 | 4097.3 |
| 20260508060251 | 33 | 212 | 0.0 | 0.0 | 0.00 | 0.00 | 0.00 | 99 | 4097.3 |
| 20260508055745 | 33 | 213 | 1.0 | 1.0 | 0.00 | 0.00 | 0.00 | 99 | 4097.3 |
| 20260508055243 | 34 | 213 | 0.0 | 0.0 | 0.00 | 0.00 | 0.00 | 99 | 4097.3 |
| 20260508054739 | 34 | 212 | 0.0 | 0.0 | 0.00 | 0.00 | 0.00 | 99 | 4097.3 |
| 20260508054237 | 34 | 212 | 0.0 | 0.0 | 0.00 | 0.00 | 0.00 | 99 | 4097.3 |
| 20260508053734 | 34 | 212 | 0.0 | 0.0 | 0.00 | 0.00 | 0.00 | 99 | 4097.3 |
| 20260508053231 | 34 | 212 | 0.0 | 0.0 | 0.00 | 0.00 | 0.00 | 99 | 4097.0 |
| 20260508052728 | 34 | 212 | 0.0 | 0.0 | 0.00 | 0.00 | 0.00 | 99 | 4097.3 |
| 20260508052225 | 33 | 212 | 0.0 | 0.0 | 0.00 | 0.00 | 0.00 | 99 | 4097.3 |
| 20260508051722 | 33 | 212 | 0.0 | 0.0 | 0.00 | 0.00 | 0.00 | 99 | 4097.3 |
| 20260508051217 | 33 | 212 | 0.0 | 0.0 | 0.00 | 0.00 | 0.00 | 99 | 4097.3 |
| 20260508050714 | 33 | 212 | 0.0 | 0.0 | 0.00 | 0.00 | 0.00 | 99 | 4097.3 |
| 20260508050212 | 33 | 212 | 0.0 | 0.0 | 0.00 | 0.00 | 0.00 | 99 | 4097.7 |
| 20260508045706 | 33 | 213 | 0.0 | 0.0 | 0.00 | 0.00 | 0.00 | 99 | 4097.7 |
| 20260508045204 | 34 | 213 | 0.0 | 0.0 | 0.00 | 0.00 | 0.00 | 99 | 4097.7 |
| 20260508044702 | 34 | 212 | 0.0 | 0.0 | 0.00 | 0.00 | 0.00 | 99 | 4097.7 |
| 20260508044158 | 34 | 212 | 0.0 | 0.0 | 0.00 | 0.00 | 0.00 | 99 | 4097.7 |
| 20260508043654 | 34 | 212 | 0.0 | 0.0 | 0.00 | 0.00 | 0.00 | 99 | 4097.7 |
| 20260508043152 | 34 | 212 | 0.0 | 0.0 | 0.00 | 0.00 | 0.00 | 99 | 4097.7 |
| 20260508042648 | 35 | 213 | 0.0 | 0.0 | 0.00 | 0.00 | 0.00 | 99 | 4097.7 |
| 20260508042146 | 35 | 213 | 0.0 | 0.0 | 0.00 | 0.00 | 0.00 | 99 | 4097.3 |
| 20260508041642 | 34 | 212 | 0.0 | 0.0 | 0.00 | 0.00 | 0.00 | 99 | 4097.3 |
| 20260508041139 | 34 | 213 | 0.0 | 0.0 | 0.00 | 0.00 | 0.00 | 99 | 4097.7 |
| 20260508040635 | 35 | 213 | 0.0 | 0.0 | 0.00 | 0.00 | 0.00 | 99 | 4097.3 |
| 20260508040133 | 35 | 213 | 0.0 | 0.0 | 0.00 | 0.00 | 0.00 | 99 | 4097.7 |
| 20260508035630 | 35 | 213 | 0.0 | 0.0 | 0.00 | 0.00 | 0.00 | 99 | 4097.3 |
| 20260508035127 | 34 | 213 | 0.0 | 0.0 | 0.00 | 0.00 | 0.00 | 99 | 4097.3 |
| 20260508034624 | 35 | 213 | 0.0 | 0.0 | 0.00 | 0.00 | 0.00 | 99 | 4097.3 |
| 20260508034121 | 35 | 213 | 0.0 | 0.0 | 0.00 | 0.00 | 0.00 | 99 | 4097.7 |
| 20260508033618 | 35 | 213 | 1.0 | 1.0 | 0.00 | 0.00 | 0.00 | 99 | 4097.7 |
| 20260508033117 | 35 | 213 | 0.0 | 1.0 | 0.00 | 0.00 | 0.00 | 99 | 4097.3 |
| 20260508032613 | 35 | 213 | 1.0 | 1.0 | 0.00 | 0.00 | 0.00 | 99 | 4097.3 |
| 20260508032111 | 35 | 213 | 0.0 | 0.0 | 0.00 | 0.00 | 0.00 | 99 | 4097.7 |
| 20260508031608 | 36 | 213 | 0.0 | 0.0 | 0.00 | 0.00 | 0.00 | 99 | 4097.3 |
| 20260508031103 | 36 | 213 | 0.0 | 0.0 | 0.00 | 0.00 | 0.00 | 99 | 4097.3 |
| 20260508030600 | 36 | 213 | 1.0 | 1.0 | 0.00 | 0.00 | 0.00 | 99 | 4097.3 |
| 20260508030058 | 37 | 213 | 0.0 | 1.0 | 0.00 | 0.00 | 0.00 | 98 | 4097.3 |
| 20260508025554 | 37 | 213 | 0.0 | 1.0 | 0.00 | 0.00 | 0.00 | 98 | 4097.3 |
| 20260508025051 | 37 | 213 | 0.0 | 0.0 | 0.00 | 0.00 | 0.00 | 97 | 4097.3 |
| 20260508024547 | 38 | 213 | 0.0 | 0.0 | 0.00 | 0.00 | 0.00 | 96 | 4097.3 |
| 20260508024044 | 39 | 213 | 0.0 | 0.0 | 0.00 | 0.00 | 0.00 | 96 | 4097.3 |
| 20260508023540 | 39 | 213 | 0.0 | 0.0 | 0.00 | 0.00 | 0.00 | 96 | 4097.3 |
| 20260508023038 | 39 | 213 | 0.0 | 0.0 | 0.00 | 0.00 | 0.00 | 96 | 4097.7 |
| 20260508022534 | 39 | 213 | 0.0 | 0.0 | 0.00 | 0.00 | 0.00 | 96 | 4097.3 |
| 20260508022031 | 39 | 213 | 0.0 | 0.0 | 0.00 | 0.00 | 0.00 | 96 | 4097.3 |
| 20260508021527 | 39 | 213 | 0.0 | 0.0 | 0.00 | 0.00 | 0.00 | 96 | 4097.3 |
| 20260508021022 | 39 | 213 | 0.0 | 0.0 | 0.00 | 0.00 | 0.00 | 96 | 4097.3 |
| 20260508020521 | 40 | 213 | 0.0 | 0.0 | 0.00 | 0.00 | 0.00 | 96 | 4097.7 |
| 20260508020018 | 40 | 213 | 0.0 | 0.0 | 0.00 | 0.00 | 0.00 | 96 | 4097.3 |
| 20260508015515 | 40 | 213 | 0.0 | 0.0 | 0.00 | 0.00 | 0.00 | 97 | 4097.7 |
| 20260508015012 | 40 | 214 | 0.0 | 0.0 | 0.00 | 0.00 | 0.00 | 96 | 4097.3 |
| 20260508014508 | 41 | 216 | 1.0 | 2.0 | 0.00 | 0.00 | 0.00 | 97 | 4097.7 |
| 20260508014005 | 40 | 45 | 0.0 | 0.0 | 0.00 | 0.00 | 0.00 | 95 | 4097.3 |
| 20260508013501 | 41 | 38 | 0.0 | 0.0 | 0.00 | 0.00 | 0.00 | 94 | 4097.7 |
| 20260508012958 | 41 | 38 | 0.0 | 0.0 | 0.00 | 0.00 | 0.00 | 94 | 4097.7 |
| 20260508012455 | 41 | 38 | 0.0 | 0.0 | 0.00 | 0.00 | 0.00 | 93 | 4097.7 |
| 20260508011953 | 41 | 38 | 1.0 | 1.0 | 0.00 | 0.00 | 0.00 | 92 | 4097.7 |
| 20260508011451 | 41 | 37 | 0.0 | 0.0 | 0.00 | 0.00 | 0.00 | 91 | 4097.7 |
| 20260508010948 | 41 | 37 | 0.0 | 1.0 | 0.00 | 0.00 | 0.00 | 90 | 4097.7 |
| 20260508010445 | 41 | 1 | 0.0 | 1.0 | 0.00 | 0.00 | 0.00 | 88 | 4097.3 |
| 20260508005942 | 41 | 319 | 0.0 | 1.0 | 0.00 | 0.00 | 0.00 | 88 | 4097.3 |
| 20260508005438 | 41 | 129 | 1.0 | 2.0 | 0.00 | 0.00 | 0.00 | 88 | 4097.3 |
| 20260508004935 | 42 | 103 | 2.0 | 3.0 | 0.00 | 0.00 | 0.00 | 85 | 4097.3 |
| 20260508004431 | 42 | 31 | 0.0 | 1.0 | 0.00 | 0.00 | 0.00 | 82 | 4097.3 |
| 20260508003928 | 42 | 31 | 0.0 | 0.0 | 0.00 | 0.00 | 0.00 | 83 | 4097.3 |
| 20260508003425 | 42 | 31 | 0.0 | 0.0 | 0.00 | 0.00 | 0.00 | 83 | 4097.0 |
| 20260508002922 | 42 | 31 | 0.0 | 0.0 | 0.00 | 0.00 | 0.00 | 83 | 4097.0 |
| 20260508002419 | 42 | 31 | 0.0 | 0.0 | 0.00 | 0.00 | 0.00 | 84 | 4097.0 |
| 20260508001915 | 42 | 31 | 0.0 | 0.0 | 0.00 | 0.00 | 0.00 | 83 | 4097.0 |
| 20260508001411 | 43 | 31 | 0.0 | 0.0 | 0.00 | 0.00 | 0.00 | 83 | 4097.0 |
| 20260508000908 | 43 | 31 | 0.0 | 0.0 | 0.00 | 0.00 | 0.00 | 83 | 4097.0 |
| 20260508000405 | 43 | 31 | 0.0 | 0.0 | 0.00 | 0.00 | 0.00 | 82 | 4097.0 |
| 20260507235901 | 43 | 31 | 0.0 | 0.0 | 0.00 | 0.00 | 0.00 | 82 | 4097.0 |
| 20260507235358 | 43 | 31 | 0.0 | 0.0 | 0.00 | 0.00 | 0.00 | 82 | 4096.5 |
| 20260507234855 | 43 | 31 | 0.0 | 0.0 | 0.00 | 0.00 | 0.00 | 82 | 4097.0 |
| 20260507234351 | 43 | 31 | 0.0 | 0.0 | 0.00 | 0.00 | 0.00 | 82 | 4096.5 |
| 20260507233848 | 43 | 31 | 0.0 | 0.0 | 0.00 | 0.00 | 0.00 | 82 | 4096.5 |
| 20260507233345 | 43 | 31 | 0.0 | 0.0 | 0.00 | 0.00 | 0.00 | 81 | 4096.5 |
| 20260507232843 | 43 | 31 | 0.0 | 0.0 | 0.00 | 0.00 | 0.00 | 81 | 4096.5 |
| 20260507232339 | 44 | 30 | 0.0 | 0.0 | 0.00 | 0.00 | 0.00 | 81 | 4096.5 |
| 20260507231837 | 44 | 35 | 0.0 | 0.0 | 0.00 | 0.00 | 0.00 | 81 | 4096.5 |
| 20260507231334 | 44 | 36 | 0.0 | 0.0 | 0.00 | 0.00 | 0.00 | 81 | 4097.0 |
| 20260507230830 | 44 | 36 | 0.0 | 0.0 | 0.00 | 0.00 | 0.00 | 80 | 4097.0 |
| 20260507230327 | 44 | 36 | 0.0 | 0.0 | 0.00 | 0.00 | 0.00 | 80 | 4097.0 |
| 20260507225827 | 44 | 36 | 0.0 | 0.0 | 0.00 | 0.00 | 0.00 | 80 | 4097.0 |
| 20260507225323 | 44 | 36 | 0.0 | 0.0 | 0.00 | 0.00 | 0.00 | 79 | 4097.0 |
| 20260507224820 | 44 | 36 | 0.0 | 0.0 | 0.00 | 0.00 | 0.00 | 79 | 4097.0 |
| 20260507224316 | 44 | 36 | 0.0 | 0.0 | 0.00 | 0.00 | 0.00 | 80 | 4097.0 |
| 20260507223812 | 44 | 36 | 0.0 | 0.0 | 0.00 | 0.00 | 0.00 | 79 | 4097.0 |
| 20260507223309 | 45 | 36 | 0.0 | 0.0 | 0.00 | 0.00 | 0.00 | 80 | 4097.0 |
| 20260507222806 | 45 | 36 | 0.0 | 0.0 | 0.00 | 0.00 | 0.00 | 78 | 4097.0 |